Wind_Speed
18 18 16 14 12 10 7 6 6 9 7 6 7 7 9 10 12 14 14 14 14 14 14 14 14 13 12 13 12 12 12 12 12 12 12 13 14 14 14 14 13 13 12 11 10 9 10 9 8 7 7 6 5 5 5 4 5 5 6 5 3 3 3 2 3 4 5 5 7 8 6 6 6 5 4 5 5 6 7 8 8 9 9 9 9
19 21 18 16 14 14 14 12 8 9 9 6 7 8 8 9 12 13 13 13 14 14 12 14 16 14 13 14 14 14 14 14 13 12 11 13 15 15 14 15 14 14 13 12 11 10 10 10 9 9 8 7 6 6 5 4 4 4 4 3 3 2 2 1 1 2 3 3 4 5 4 5 5 4 4 5 5 6 6 7 7 8 8 9 9
20 21 21 20 18 17 18 16 12 11 10 7 5 6 7 8 10 12 12 13 15 15 15 16 16 16 16 16 15 15 16 16 14 12 12 13 14 15 15 16 15 14 14 12 12 11 11 10 10 10 9 8 7 6 6 5 4 4 3 3 2 2 2 2 1 0 1 1 1 3 2 2 3 3 3 4 5 6 6 7 7 7 8 8 8
19 20 20 20 18 18 19 18 16 15 14 12 10 6 3 4 8 11 11 12 13 16 18 18 18 18 17 17 17 17 17 17 15 14 15 15 15 15 16 16 16 15 14 13 13 12 11 10 10 10 9 9 9 8 7 7 5 4 3 3 2 2 2 3 2 2 2 2 2 1 1 1 2 2 3 3 4 5 6 8 8 8 8 8 8
20 20 20 20 18 18 18 17 17 16 14 14 16 15 11 7 5 8 11 12 13 15 18 20 20 21 20 18 18 18 19 19 18 18 18 18 18 18 18 17 17 16 15 15 14 13 13 11 11 11 11 10 10 9 8 8 7 6 5 4 3 3 3 3 4 5 5 5 5 5 5 3 2 2 2 2 3 5 6 7 8 8 7 7 8
20 19 19 20 19 19 18 17 15 15 14 13 14 16 16 15 11 7 9 12 14 15 17 19 20 20 21 19 19 19 20 20 21 20 20 21 20 20 19 18 17 17 17 17 16 15 14 13 13 13 12 12 11 10 9 8 7 7 6 5 4 4 3 3 4 5 5 5 6 6 6 5 3 3 2 3 4 5 6 7 7 7 7 7 7
18 17 17 18 19 20 20 20 19 17 16 14 14 14 14 14 15 13 9 11 15 17 17 17 17 17 19 20 19 20 20 21 22 21 21 21 21 20 20 19 19 19 18 17 17 16 16 15 16 15 15 14 13 12 10 9 8 8 7 6 5 4 4 4 4 4 5 5 6 6 6 5 5 4 3 4 4 5 6 7 7 7 7 7 6
15 15 15 15 17 19 20 21 22 23 21 17 16 15 15 14 14 13 10 11 14 18 19 17 16 16 19 19 19 19 20 21 22 22 22 22 21 21 21 21 20 19 18 17 17 17 17 17 17 17 16 16 15 13 12 11 10 9 9 7 6 6 5 5 5 6 5 6 6 6 6 6 5 5 4 5 5 5 6 6 7 7 6 6 6
15 15 15 14 15 17 19 21 22 23 24 23 21 20 19 18 16 13 10 11 11 11 15 17 17 18 18 18 19 20 20 21 21 22 22 22 22 22 22 22 21 20 19 18 18 18 17 17 17 17 17 17 17 15 14 13 12 11 11 10 8 7 7 7 7 7 7 7 7 7 7 8 7 6 5 6 5 5 6 6 6 6 6 6 6
16 16 16 16 16 16 17 19 20 22 23 24 24 24 24 23 21 19 17 17 17 14 10 12 16 18 18 17 18 21 23 22 22 22 22 22 23 23 23 23 22 21 21 20 20 19 19 18 18 18 18 18 18 17 16 15 15 14 13 12 10 9 8 8 8 9 9 8 9 9 9 9 9 7 6 6 5 5 6 6 6 6 6 6 6
17 17 17 16 16 16 16 17 18 20 21 20 22 24 25 25 24 24 24 23 23 21 17 14 14 16 17 17 17 20 24 24 23 24 24 24 25 25 25 25 25 24 23 22 21 20 20 19 18 18 18 18 19 18 18 17 17 16 15 14 12 11 10 10 10 10 11 11 10 10 10 10 10 9 7 6 6 6 6 6 5 5 5 6 5
17 18 18 17 17 17 16 16 17 18 19 19 20 22 23 25 25 24 24 24 24 23 21 19 16 16 17 18 19 20 24 25 25 25 26 26 26 27 27 26 26 26 25 24 23 22 21 19 19 18 18 19 19 19 19 18 18 17 16 15 13 13 12 12 11 12 12 12 12 12 11 11 11 11 9 8 7 7 7 6 6 5 5 5 5
17 19 20 19 19 18 17 16 16 17 18 18 19 21 22 24 25 24 23 22 22 22 22 22 20 19 18 18 19 21 24 27 27 27 27 28 28 27 27 27 27 27 26 26 25 23 22 20 19 19 19 19 19 20 19 19 19 18 17 16 15 14 13 13 13 13 13 13 14 14 13 12 12 12 11 10 9 9 8 6 6 6 5 5 6
18 19 20 20 20 19 19 18 16 15 17 18 19 21 22 23 24 23 21 21 22 22 22 23 22 23 21 19 19 20 23 27 29 29 28 28 28 28 27 28 28 28 28 27 26 24 23 22 21 20 20 20 20 20 20 20 20 19 17 16 16 15 15 14 14 14 14 15 15 15 14 13 12 12 12 11 10 10 9 7 7 7 6 6 7
19 19 19 20 20 20 20 19 18 17 17 19 20 21 22 22 23 22 21 21 21 21 21 22 22 22 22 20 20 21 22 26 28 30 30 29 28 28 27 27 28 28 28 28 26 25 24 24 23 22 21 21 21 21 20 20 20 19 18 17 17 16 16 15 15 15 15 16 16 16 15 14 13 13 12 11 11 11 10 9 9 8 7 7 8
19 20 20 20 19 20 20 20 20 19 19 19 20 22 22 22 22 22 23 22 21 21 21 21 20 20 21 19 19 21 21 24 28 30 30 30 30 29 27 26 27 28 29 28 27 26 26 25 24 24 23 22 21 21 20 20 20 20 19 18 18 18 17 16 16 16 16 16 16 16 16 15 14 14 13 12 12 12 10 9 9 9 9 9 8
20 21 22 22 21 20 20 21 20 20 20 20 20 21 22 23 22 22 23 24 23 22 23 23 21 20 19 18 18 20 20 22 27 30 30 31 33 32 29 28 28 29 30 29 28 27 26 25 25 25 24 23 23 22 21 21 21 21 20 20 20 19 18 18 17 17 17 17 17 18 17 16 15 14 14 13 13 12 11 10 10 10 9 9 9
21 23 24 24 24 23 22 23 22 21 21 20 20 21 22 23 23 23 23 25 25 25 24 24 23 21 20 18 18 19 20 21 24 28 29 30 33 33 32 32 31 32 32 31 30 28 27 26 26 26 25 24 23 22 22 22 22 22 21 21 21 20 20 19 19 18 18 18 18 18 17 16 16 15 14 14 13 13 12 11 11 10 10 10 10
22 23 24 24 25 26 25 25 25 24 23 22 21 21 21 23 24 25 25 25 26 26 26 25 24 22 20 19 18 19 20 20 20 24 28 30 32 33 34 34 34 34 35 34 32 30 29 29 28 27 26 25 24 23 23 23 23 23 22 22 21 21 21 20 20 19 18 18 19 19 18 17 17 16 15 15 14 13 13 12 12 11 11 11 11
25 24 24 24 24 25 25 26 27 27 26 25 23 22 22 23 24 26 27 27 27 27 27 26 25 24 22 19 19 19 20 20 18 21 27 30 32 33 34 35 35 35 36 36 34 31 30 30 29 28 28 26 25 24 23 23 23 23 23 22 22 22 22 22 21 20 19 19 19 20 19 18 18 17 16 15 15 14 14 14 13 12 12 13 13
26 26 26 26 25 25 25 25 26 27 28 27 26 25 24 24 25 26 27 28 28 28 28 27 27 26 24 21 19 19 20 19 17 18 24 28 31 32 33 34 35 35 35 35 34 34 33 31 30 30 28 26 25 23 23 23 23 22 22 22 22 23 23 23 22 20 20 20 21 21 20 20 19 18 17 17 16 16 16 15 14 13 14 14 14
28 27 26 26 27 27 27 27 26 26 27 27 26 26 26 26 26 27 28 29 29 28 28 28 28 28 26 23 21 19 19 19 17 17 22 26 29 31 31 33 35 35 34 34 34 34 34 34 33 30 27 25 25 24 24 25 23 22 23 23 23 23 23 23 22 21 21 21 21 21 21 20 19 18 17 17 17 17 17 16 15 15 15 15 14
31 30 29 28 28 28 28 28 28 28 28 28 28 27 27 27 28 29 29 30 29 28 27 28 28 28 28 26 23 21 20 19 18 17 19 24 28 30 31 32 35 36 35 34 33 33 33 33 32 29 27 27 26 26 26 25 24 24 24 24 24 24 23 22 22 22 21 21 21 21 20 19 18 18 17 16 16 17 17 17 16 16 16 16 15
35 35 34 32 31 31 30 30 30 30 29 30 30 30 30 30 30 30 30 30 30 29 28 27 27 27 27 27 26 24 21 20 19 17 17 20 24 27 30 32 35 37 36 35 34 33 32 33 31 30 30 29 28 27 27 26 26 26 25 25 25 24 23 23 23 23 22 21 21 20 19 18 18 17 16 15 16 17 17 17 17 17 17 17 16
37 37 37 36 35 34 33 32 32 32 32 32 32 33 34 33 32 31 30 30 30 30 28 27 26 27 27 27 27 26 23 21 20 18 16 17 20 23 27 30 33 35 36 36 35 34 34 34 34 33 32 30 29 29 28 27 27 26 26 27 26 25 24 24 24 23 22 22 21 21 20 19 18 18 16 15 16 17 17 17 18 18 18 18 18
38 38 38 39 38 37 36 35 35 35 35 35 34 35 36 36 33 31 30 30 30 31 29 27 25 25 26 26 27 28 26 24 22 19 16 16 18 21 25 27 30 33 34 34 35 36 37 36 36 36 33 31 30 29 28 28 28 28 28 28 28 26 26 25 24 23 23 23 22 22 21 19 19 18 17 17 17 17 17 18 19 19 19 19 19
38 39 39 40 41 41 40 40 39 39 38 37 36 34 34 36 35 33 31 30 30 31 30 28 25 24 24 25 26 28 29 27 24 21 17 15 16 19 23 26 28 31 33 34 35 37 37 37 36 36 35 33 33 32 30 29 30 31 30 29 29 28 27 26 25 24 24 24 23 23 22 21 20 19 19 18 18 18 18 19 19 19 20 20 20
39 39 40 42 43 43 43 43 43 42 41 39 37 34 31 32 35 34 32 31 30 30 30 28 26 25 24 24 24 27 29 29 28 24 19 17 16 17 19 23 26 29 31 33 34 35 36 37 37 36 36 36 35 35 34 31 31 32 31 30 31 30 28 27 25 24 24 24 24 23 23 21 20 20 20 19 19 19 19 19 19 19 19 19 19
39 41 42 43 44 45 46 45 45 44 42 39 37 34 31 30 33 34 33 30 30 30 30 28 26 25 24 24 24 25 28 30 31 28 22 18 18 18 18 20 24 28 31 32 33 33 34 36 36 37 37 37 36 36 35 33 31 32 32 32 32 31 28 26 26 25 25 24 24 23 23 22 21 21 21 21 20 19 18 17 18 18 19 19 19
40 42 43 44 45 46 46 46 44 43 42 40 37 35 33 30 30 31 31 30 29 29 29 28 26 25 25 24 24 25 27 30 32 31 26 21 19 20 19 18 19 23 28 32 33 33 34 34 35 36 38 38 38 37 36 34 33 32 32 32 32 31 29 27 27 26 26 25 24 24 24 23 22 21 21 21 19 17 17 19 20 20 20 20 20
42 42 43 44 45 45 45 44 43 41 40 39 36 34 31 29 27 27 28 29 28 29 29 28 26 25 25 25 24 25 26 29 32 32 29 25 22 22 21 19 18 19 22 27 30 32 34 35 35 36 37 38 38 37 36 36 35 34 33 33 32 32 31 29 28 28 27 27 26 25 25 24 23 23 22 22 20 18 20 22 22 21 20 20 21
42 42 43 44 44 44 43 41 40 38 36 35 33 30 28 26 25 25 26 26 27 28 29 29 27 25 25 25 25 25 26 28 31 32 30 28 26 25 24 22 20 19 19 21 24 27 30 34 36 37 37 38 38 37 37 37 37 37 36 35 34 34 33 32 30 30 30 30 29 28 27 26 25 25 24 22 20 20 22 23 22 22 21 20 21
41 42 42 43 42 41 39 37 35 33 31 30 28 26 25 24 24 24 24 24 25 26 27 29 27 25 25 25 26 26 26 27 30 31 31 29 28 27 26 24 22 21 20 20 21 23 25 29 32 35 36 38 39 39 38 38 39 39 38 37 36 35 35 34 33 32 32 33 32 31 30 29 28 27 25 24 22 21 22 23 22 22 21 21 22
40 40 40 39 38 36 34 32 30 29 28 26 25 24 24 23 23 23 24 24 23 23 25 27 28 26 25 25 25 26 26 27 29 31 32 30 29 29 27 26 24 23 23 22 21 21 23 25 28 30 32 34 38 40 41 40 39 40 39 38 37 37 37 36 34 33 34 34 34 33 32 31 30 28 26 25 25 23 21 22 22 22 22 22 23
39 38 36 34 32 31 29 27 27 26 25 24 23 23 23 23 23 23 24 24 23 23 23 25 27 27 25 25 25 26 27 27 28 31 32 32 30 30 29 28 26 25 25 24 22 22 22 23 25 26 27 29 33 37 40 41 41 41 41 40 39 38 37 36 36 35 36 35 35 36 35 34 32 30 28 27 26 24 22 22 22 22 23 22 23
37 36 33 31 29 27 26 25 25 24 24 23 23 23 24 24 24 23 23 24 24 23 23 24 25 26 26 25 25 26 27 28 28 30 32 34 33 32 30 29 27 26 26 25 23 23 22 21 22 23 24 25 26 29 33 37 40 42 42 41 40 40 39 37 37 37 37 37 37 37 38 37 35 32 30 29 28 26 24 23 22 22 22 22 22
35 33 31 30 29 27 26 26 25 24 24 23 24 24 24 24 24 24 23 23 23 23 23 23 24 26 26 25 25 26 26 27 28 30 32 35 36 34 32 31 29 28 28 27 25 24 24 22 20 20 21 22 23 23 25 29 34 38 40 40 40 41 41 40 38 36 37 38 39 39 38 38 36 34 32 31 29 28 26 24 24 23 23 22 22
33 31 29 29 29 28 27 26 26 25 24 24 24 24 24 23 23 24 24 24 23 23 23 23 23 25 26 25 25 26 27 27 28 29 32 34 36 36 34 31 29 29 29 28 26 25 25 23 21 20 21 21 21 21 22 24 27 31 35 37 39 41 41 42 41 39 37 37 39 39 39 38 37 36 34 33 32 31 29 27 27 26 25 24 23
32 30 29 28 28 28 27 26 25 25 24 24 23 23 23 23 23 24 26 26 25 25 24 24 23 24 25 25 25 25 26 27 28 29 31 33 36 37 35 32 30 29 29 28 27 26 26 25 23 21 22 22 22 22 22 24 25 27 29 32 35 37 38 40 42 42 41 40 39 39 38 38 38 37 36 35 34 33 32 31 29 27 26 26 26
31 30 29 28 28 27 27 27 25 24 24 24 24 24 25 26 27 28 30 30 29 28 27 26 25 24 25 25 25 25 26 27 27 29 30 32 35 38 37 34 32 30 29 29 28 26 26 26 24 23 23 23 23 23 22 23 24 26 28 29 30 30 32 34 37 40 41 43 42 40 38 38 39 39 37 36 36 35 33 32 30 28 27 28 27
30 30 29 28 28 28 28 27 26 25 25 26 27 29 31 32 33 33 33 33 33 32 30 29 28 27 26 26 26 26 26 26 27 28 29 32 34 38 39 36 33 31 31 30 29 27 26 26 24 23 23 24 24 24 23 23 24 25 27 28 28 27 28 30 32 34 37 40 41 40 38 39 40 40 38 37 37 36 34 33 32 30 29 29 29
31 30 29 29 28 28 28 28 28 29 30 31 33 34 35 35 35 34 32 32 32 32 32 31 31 29 28 28 27 27 27 27 27 27 28 30 33 36 39 37 34 32 31 30 30 29 27 26 24 24 24 24 24 24 24 24 24 25 25 26 26 26 27 27 29 30 33 35 37 38 38 39 40 40 38 37 37 36 34 34 34 31 30 30 30
32 31 30 30 29 28 29 30 31 32 34 36 36 35 34 33 32 31 29 28 28 29 29 30 30 30 29 29 28 28 27 26 27 27 27 29 30 34 38 38 35 33 31 30 30 29 28 26 25 24 23 23 23 23 23 24 24 25 26 26 25 25 26 27 28 29 31 33 34 36 39 39 39 38 37 37 37 36 35 34 34 32 30 30 30
32 31 31 30 29 29 30 32 34 35 37 38 36 33 31 30 30 29 28 26 26 26 27 27 27 27 28 28 28 28 28 26 26 26 27 28 29 32 37 39 37 35 33 30 28 28 28 27 25 24 23 22 21 21 22 24 25 25 25 24 23 23 25 27 28 30 31 32 33 35 37 36 35 36 36 36 35 34 34 34 34 33 32 32 32
32 31 30 29 29 30 31 33 35 37 38 36 34 31 30 30 29 28 27 26 25 25 25 26 26 25 25 25 26 27 27 27 26 26 26 27 28 31 35 38 37 37 35 31 29 29 28 26 24 23 21 19 19 20 21 23 24 23 22 21 21 23 24 25 26 27 27 27 29 31 32 32 32 33 33 33 33 33 34 35 35 35 35 35 35
31 31 30 29 29 30 32 34 36 37 36 34 33 32 31 30 29 28 27 26 24 24 24 24 23 23 23 23 24 25 26 27 26 25 26 27 28 30 34 37 37 36 35 33 30 29 27 25 23 21 19 17 17 18 19 21 22 21 20 20 21 23 24 26 28 29 27 26 27 28 28 29 29 30 32 32 31 32 33 33 31 32 34 35 36
30 30 29 29 29 31 32 35 36 35 34 33 33 32 31 29 27 26 25 24 23 22 22 22 21 20 21 21 22 23 25 26 26 25 26 27 27 29 32 34 36 36 35 34 32 30 27 24 22 20 19 18 17 17 19 21 21 21 20 21 22 24 25 27 30 32 31 30 29 30 30 30 30 31 33 32 30 30 32 30 28 29 33 35 35
30 30 29 29 30 31 33 34 34 33 32 33 33 31 29 27 26 24 23 22 22 21 21 21 20 19 19 20 21 22 24 25 25 25 26 26 27 29 31 32 34 37 37 34 32 30 28 25 23 21 20 19 18 18 20 21 21 21 21 23 24 25 26 28 29 29 30 29 27 27 30 33 33 33 33 31 30 30 30 29 29 31 34 35 34
29 29 29 29 30 31 33 34 33 32 32 32 32 31 29 26 25 24 23 22 21 21 20 20 19 19 19 20 21 22 23 24 24 24 26 26 27 30 32 32 33 35 36 34 31 29 27 25 24 23 21 20 20 20 20 21 21 20 21 23 25 26 26 27 28 27 28 28 27 25 26 28 30 31 29 28 29 30 30 31 32 34 36 36 34
28 29 29 29 30 32 34 34 32 31 32 32 31 30 29 27 25 24 23 22 21 21 20 19 18 18 19 20 21 21 22 23 23 23 25 26 27 29 31 32 33 34 34 32 29 27 26 25 25 24 22 21 21 19 18 20 20 20 21 22 23 25 27 27 27 27 27 28 29 28 26 24 24 26 27 28 29 31 32 33 34 36 36 34 31
28 28 29 29 30 32 34 34 32 32 32 32 31 30 29 27 26 25 23 22 21 21 20 18 17 18 19 19 20 20 21 22 22 22 24 26 27 28 30 31 33 33 31 30 28 26 24 24 25 24 22 22 21 18 18 19 18 18 20 20 20 22 24 25 26 26 27 27 27 27 26 26 26 26 28 29 30 31 31 30 29 29 27 24 21
Wind_Direction
24 18 13 11 6 1 18 38 348 304 280 264 260 257 250 240 234 232 231 235 241 239 230 224 223 222 225 228 227 222 223 227 225 212 200 195 191 186 186 187 189 192 194 195 194 193 192 189 191 191 197 209 191 158 148 140 128 110 102 95 77 66 58 30 357 5 18 28 33 41 55 67 83 103 120 135 150 162 169 175 174 174 180 185 187
28 23 28 31 20 12 23 42 25 331 312 298 270 253 250 249 245 242 237 238 246 248 238 227 224 222 221 224 224 220 218 220 222 216 205 199 195 190 189 191 193 195 197 199 200 201 200 194 194 197 198 207 205 180 171 165 143 129 122 113 103 92 78 56 360 15 27 31 28 28 52 83 94 104 123 141 154 165 172 175 178 180 183 185 186
23 24 32 37 34 26 23 28 24 356 341 335 302 266 252 247 244 243 244 242 240 239 237 231 227 224 220 219 220 219 216 214 215 213 207 202 200 196 193 194 196 197 199 202 206 208 206 199 198 201 199 204 210 198 191 191 176 162 155 140 141 137 110 112 180 28 8 360 17 10 28 93 108 111 121 145 160 167 171 173 177 181 183 184 183
24 26 30 32 32 30 28 27 21 8 359 360 358 344 302 263 246 240 245 248 245 240 235 232 229 229 227 223 219 217 215 212 210 209 207 202 200 201 198 197 199 199 201 205 209 212 211 205 203 203 201 205 212 208 203 204 199 190 183 170 168 168 144 144 174 189 197 204 201 211 198 165 154 139 126 137 164 175 179 177 176 178 180 185 188
22 23 26 27 23 18 21 27 26 19 11 8 8 4 354 340 286 245 242 246 249 245 239 236 232 231 232 230 225 217 212 211 208 207 208 204 200 202 201 199 200 201 204 207 209 212 213 210 208 207 205 208 214 213 210 209 205 204 203 190 179 180 175 165 175 190 192 192 190 182 177 179 182 172 152 141 166 184 188 183 178 176 177 183 191
17 17 19 21 17 8 6 11 20 28 29 22 12 4 355 348 341 305 262 254 254 248 245 244 237 233 232 230 228 219 210 209 210 207 208 209 205 204 203 200 200 202 205 208 210 212 213 213 212 212 210 211 216 214 212 211 208 212 212 200 188 185 191 195 191 194 193 190 187 178 178 184 177 172 186 190 186 191 191 188 185 180 175 181 189
13 12 12 13 13 7 0 355 356 7 21 28 25 18 8 356 349 340 313 288 276 266 263 254 242 242 240 236 234 225 214 211 211 209 208 211 210 207 205 201 201 203 206 208 211 212 213 214 216 217 215 215 217 215 212 213 212 216 219 209 197 191 194 211 218 213 201 195 194 188 192 201 183 173 197 208 198 193 189 185 186 185 179 179 185
6 6 5 5 7 5 1 353 346 345 350 0 7 9 11 7 2 354 336 315 292 275 270 263 250 249 245 239 236 230 225 220 215 212 209 209 210 208 207 205 204 205 207 209 212 214 213 214 218 221 219 216 216 215 213 213 214 217 222 217 205 199 200 210 227 233 215 205 206 198 201 214 203 190 198 205 201 191 189 188 185 184 184 185 188
358 359 358 355 355 357 357 353 345 339 336 338 340 342 346 348 351 350 342 338 327 293 271 263 257 253 246 239 231 222 225 229 225 221 214 208 208 208 208 208 207 207 207 210 212 214 214 214 218 222 221 218 216 215 212 213 215 217 222 222 213 207 207 209 223 236 229 215 213 206 200 208 212 209 202 200 199 188 190 198 196 189 188 192 196
349 352 353 350 348 347 348 347 342 337 333 332 332 333 336 336 335 335 334 338 343 339 312 280 266 259 252 250 240 224 221 225 228 230 224 213 209 209 207 207 207 207 207 210 212 214 216 216 217 221 222 220 217 215 213 213 216 218 221 223 219 213 212 214 219 231 234 224 217 213 207 208 211 210 205 206 204 191 191 199 202 199 197 199 199
341 343 345 345 344 342 340 339 335 332 330 328 327 329 333 334 333 330 329 330 334 339 337 319 293 274 262 261 258 239 226 222 222 229 230 222 214 211 209 206 206 206 206 208 211 213 215 216 217 219 222 222 220 218 215 215 218 220 222 223 223 219 216 218 220 226 232 230 224 220 216 215 212 206 205 214 216 205 199 199 200 202 203 205 203
336 337 339 339 340 340 338 333 329 326 325 324 322 324 328 331 331 328 325 325 325 326 328 325 311 292 279 271 265 252 236 227 223 224 227 226 220 215 212 208 205 204 204 205 208 211 213 215 216 217 219 221 222 221 219 219 221 223 225 225 225 223 220 220 222 224 227 229 229 225 221 218 215 210 204 209 218 219 212 203 201 206 207 210 211
335 334 335 336 336 337 337 334 329 324 323 322 319 319 323 326 327 324 321 321 320 316 313 316 315 306 293 279 270 259 243 233 228 225 225 226 224 220 217 213 208 205 205 205 206 208 211 213 213 214 216 219 222 223 222 222 224 226 227 227 226 225 223 223 224 224 224 226 228 227 225 221 219 216 209 207 214 220 220 214 211 215 215 213 212
333 332 331 331 332 331 331 331 329 325 322 320 318 317 319 322 322 319 315 315 318 315 307 306 313 315 307 289 276 266 250 238 232 228 227 225 224 222 219 217 214 210 209 209 207 207 209 211 211 211 213 215 218 221 223 224 226 228 229 229 229 228 226 225 224 224 224 224 225 224 225 225 225 224 216 211 211 213 220 224 220 222 221 214 212
326 326 326 326 327 327 325 325 324 323 321 319 317 316 316 317 316 314 309 307 309 311 306 303 306 313 314 300 279 268 256 243 235 229 226 224 223 224 224 222 220 216 214 214 211 209 209 210 211 211 212 213 215 219 222 224 227 229 229 229 231 231 229 227 225 224 223 223 223 222 223 224 227 228 222 217 214 214 221 225 221 222 224 218 216
321 321 323 323 324 322 320 319 319 320 320 320 317 315 314 314 312 309 307 304 302 300 299 299 299 302 310 307 289 276 263 249 239 231 224 219 217 220 223 224 224 223 221 219 216 213 212 212 213 213 212 213 215 217 221 224 227 229 229 229 231 232 231 229 227 224 222 222 222 222 222 222 223 226 226 224 222 222 226 228 224 226 228 225 222
318 321 322 322 322 320 317 315 316 316 317 318 317 314 312 311 309 306 305 303 299 294 291 292 295 294 298 302 297 285 271 257 246 235 224 217 214 214 215 217 221 225 226 224 220 217 216 216 217 218 216 214 214 216 220 224 227 229 229 228 230 232 232 230 228 226 223 223 223 222 222 222 222 224 223 225 226 227 229 229 229 232 232 228 226
318 320 321 321 321 320 318 316 316 315 315 314 314 313 311 309 306 303 302 300 296 292 288 287 289 291 291 293 297 292 279 268 256 242 230 222 217 215 214 213 216 220 223 225 224 220 217 216 219 221 221 219 218 218 220 225 227 228 229 229 230 231 234 232 229 226 225 225 225 223 222 221 223 224 222 222 224 227 229 227 226 230 231 229 230
319 318 319 318 318 318 318 317 316 315 314 313 312 311 310 308 304 300 297 295 293 290 286 283 283 285 286 287 294 296 287 279 265 244 234 230 226 224 222 218 215 216 219 221 223 221 218 217 218 219 221 222 222 222 223 225 228 229 230 230 230 231 234 234 231 228 226 226 226 225 223 220 221 225 223 221 221 224 227 228 228 228 227 229 234
319 319 317 316 315 314 314 314 315 314 313 313 311 310 308 305 303 300 297 293 291 288 284 279 277 278 281 282 286 292 291 288 274 244 232 233 233 232 230 226 220 218 217 217 218 218 218 218 218 220 220 220 221 223 226 228 228 230 231 231 230 231 233 234 232 230 229 227 225 225 224 221 221 224 224 222 221 223 227 231 235 233 230 232 236
317 317 316 315 313 311 311 311 311 310 310 309 309 307 306 303 300 299 298 295 291 287 282 277 274 273 274 276 279 284 288 290 282 254 235 233 234 233 233 230 226 224 222 219 216 215 216 217 219 220 220 220 220 220 226 231 230 229 231 234 233 231 232 233 233 231 230 228 225 224 224 223 223 224 224 223 221 223 226 229 234 236 235 235 237
315 314 312 312 311 310 309 308 307 306 305 304 304 303 302 301 300 298 298 296 292 288 283 277 273 270 269 270 272 275 280 285 285 266 245 237 236 235 233 230 228 228 228 227 223 219 218 220 220 219 219 224 224 220 223 229 230 230 230 233 235 234 232 233 233 232 230 228 227 225 224 224 225 226 226 225 223 223 225 226 229 233 235 237 240
314 313 313 312 311 310 309 307 306 304 303 302 300 300 300 299 299 299 297 296 292 289 284 278 273 268 265 265 266 268 272 278 281 273 255 244 239 237 235 230 228 228 229 231 230 227 226 226 223 220 220 223 223 222 224 226 227 229 230 230 234 236 234 232 232 232 230 229 229 229 227 226 226 227 227 227 225 226 228 228 227 229 232 235 240
317 317 316 315 313 312 311 309 308 306 304 303 301 299 299 298 298 298 296 294 292 288 284 279 273 268 263 261 262 264 266 270 274 273 262 250 243 240 236 232 229 228 227 228 229 230 230 230 229 225 223 224 223 222 225 227 226 227 230 230 231 234 233 231 231 232 231 230 230 231 230 227 226 226 225 223 225 227 230 231 231 232 233 235 238
318 317 317 316 314 314 312 311 309 307 305 304 302 300 300 299 298 297 296 294 291 288 285 280 275 269 264 259 258 259 260 263 266 267 264 255 247 243 239 236 234 232 229 228 227 228 228 229 231 228 225 224 224 222 224 228 228 226 229 232 231 231 232 231 230 231 231 230 229 229 228 226 224 224 223 222 224 226 228 230 231 233 234 235 236
316 315 315 314 314 313 312 311 309 307 305 303 302 301 300 299 297 296 295 293 291 288 286 282 277 271 265 260 256 255 256 256 258 260 261 257 250 245 241 238 238 237 234 231 228 227 227 228 230 229 224 222 225 224 224 228 231 229 229 232 231 230 231 232 231 230 230 229 227 227 227 225 224 224 223 222 225 226 226 228 229 231 233 235 238
314 314 314 313 313 312 311 309 307 305 304 302 302 301 299 298 297 295 293 291 289 286 284 283 279 274 268 261 254 253 253 253 253 254 254 254 253 248 243 241 240 239 237 235 232 229 227 227 229 229 226 224 226 226 224 226 229 229 230 232 233 231 230 232 231 229 229 228 226 225 226 225 226 226 224 223 226 228 227 228 230 230 232 234 238
313 313 313 312 311 310 309 307 306 304 303 302 301 300 298 296 295 294 292 289 285 283 281 281 279 276 271 263 254 250 249 249 250 250 249 250 253 251 246 244 243 242 240 239 236 232 228 226 228 229 228 228 228 227 226 226 227 229 229 230 232 232 230 230 231 231 230 228 226 225 225 225 226 228 228 229 231 230 229 231 232 234 236 238 241
313 312 311 310 309 308 307 306 305 304 302 301 300 298 297 295 292 291 289 286 281 278 277 277 277 275 272 267 257 248 245 246 247 247 245 246 251 252 250 248 247 245 243 241 239 235 230 227 227 229 230 231 231 231 232 232 231 232 231 230 232 234 231 228 229 230 231 230 229 228 226 225 228 232 233 234 234 233 234 237 239 240 243 246 247
311 310 309 309 308 307 307 306 305 304 302 301 299 298 297 295 291 288 285 282 278 274 274 274 273 273 271 269 263 252 245 244 246 246 244 242 247 251 249 249 252 250 246 242 239 236 232 230 229 230 231 232 233 235 237 236 233 233 232 231 233 236 235 232 229 229 231 231 232 232 230 230 233 235 235 234 234 235 237 240 241 241 243 247 251
311 311 310 309 308 308 307 306 305 303 301 300 300 299 298 294 289 285 282 280 277 273 272 272 271 270 270 269 266 258 249 244 244 245 243 240 242 246 247 248 252 253 247 241 238 235 234 233 231 231 233 234 235 236 237 235 233 233 232 230 232 235 236 235 233 232 234 235 236 236 235 236 238 239 239 238 237 236 238 240 242 243 245 248 250
313 313 312 311 310 309 308 306 304 302 300 300 300 300 299 295 290 286 283 281 280 276 273 272 271 268 267 268 267 262 255 247 244 244 242 239 239 242 245 246 249 252 247 240 238 236 236 235 234 233 235 237 236 235 235 233 232 233 233 231 230 232 234 235 235 236 237 239 239 238 238 241 243 243 243 244 241 238 238 240 242 245 247 249 250
315 314 314 313 312 311 309 306 304 302 301 301 302 303 301 297 293 290 287 285 284 282 278 276 274 269 266 266 266 264 259 251 245 242 240 238 238 240 243 245 247 250 247 243 242 240 237 236 235 235 237 239 238 237 237 236 234 233 234 233 232 232 233 234 235 237 240 242 242 241 240 242 244 244 245 247 246 241 239 239 240 244 249 252 253
316 316 316 315 313 311 309 308 306 305 305 305 306 305 303 299 296 293 291 288 286 284 281 279 277 273 267 264 264 264 261 254 246 240 237 236 235 236 239 242 245 247 247 246 246 242 238 238 237 237 239 239 239 238 238 239 236 234 234 235 235 235 236 236 236 237 241 244 246 246 245 244 244 245 246 248 249 246 241 237 237 243 248 250 251
318 318 319 317 315 312 311 311 310 309 308 307 306 305 304 302 299 295 293 291 288 285 282 279 278 275 270 264 261 262 261 257 249 240 236 235 235 234 236 238 240 243 244 245 245 240 237 240 240 239 238 238 239 238 238 237 236 235 235 236 236 237 240 240 240 239 240 241 244 247 248 247 245 245 246 247 250 250 246 241 241 245 248 247 246
320 320 321 319 316 314 313 313 313 312 310 309 308 307 307 306 304 300 297 294 291 288 283 279 278 276 272 266 261 260 259 257 253 244 236 233 233 234 235 237 239 241 242 242 243 239 236 239 241 238 236 236 239 240 239 237 236 236 236 236 236 238 241 241 240 242 242 241 242 246 248 248 247 246 245 246 249 251 250 249 248 249 249 248 247
320 321 320 318 317 317 316 315 315 314 312 311 310 309 309 308 307 304 300 297 294 291 287 281 278 277 274 269 263 260 259 257 254 248 239 232 230 232 234 235 238 241 242 242 242 240 237 238 240 238 235 237 239 240 239 238 237 238 238 237 237 239 241 241 241 243 245 244 244 245 247 248 248 249 247 247 249 251 251 252 252 251 252 252 252
320 319 318 316 315 316 316 315 315 314 313 311 310 309 308 308 306 303 301 297 294 291 289 285 280 277 275 272 267 263 261 258 255 250 243 235 231 230 232 234 235 237 241 243 244 242 239 238 238 236 234 237 240 240 238 237 237 236 236 236 237 239 241 242 242 243 245 246 246 246 246 247 249 251 249 247 248 249 250 251 251 251 254 255 254
317 317 316 314 312 312 313 314 314 313 311 310 308 307 306 305 303 301 298 296 293 290 288 286 283 279 276 273 270 265 262 260 257 251 245 238 232 229 230 231 232 233 236 238 239 240 238 236 235 234 233 235 238 241 241 240 238 236 234 234 236 238 240 242 243 244 244 246 247 248 248 247 248 250 250 247 246 247 248 249 250 251 253 254 252
315 315 315 313 311 310 311 311 311 310 308 307 306 305 304 302 300 298 294 292 289 287 284 282 281 280 278 274 271 267 263 261 258 253 247 240 233 228 227 227 227 229 232 232 232 234 234 234 234 233 234 235 236 238 239 240 239 236 233 233 235 237 240 242 244 245 245 246 247 248 247 246 246 249 250 248 246 246 246 249 250 250 251 251 249
313 314 314 313 312 311 310 310 311 310 309 309 308 307 305 304 301 298 293 289 285 283 280 279 278 278 278 276 273 269 264 262 260 256 249 242 235 229 227 226 225 226 229 231 232 233 234 234 234 234 234 234 233 234 236 238 239 236 234 234 236 238 240 243 246 247 248 247 245 245 245 243 242 245 248 248 247 246 246 248 249 247 248 250 249
313 314 315 314 313 313 312 312 312 312 311 310 309 309 308 306 303 300 295 290 286 283 279 277 274 274 274 274 272 269 265 262 261 257 250 243 237 230 227 226 224 223 226 229 232 235 236 235 235 235 235 235 233 233 235 239 241 240 237 236 236 238 241 244 248 250 250 247 244 243 243 241 239 241 246 248 246 244 244 247 247 246 245 246 247
314 314 315 314 314 313 313 312 311 311 311 310 311 311 310 308 305 301 296 293 290 287 284 279 275 271 269 269 269 267 264 261 261 257 249 242 238 231 227 225 224 223 223 226 229 232 235 236 237 238 238 237 235 234 236 240 241 240 237 235 236 239 243 247 249 249 246 242 239 237 237 238 237 239 242 244 243 242 243 245 245 245 244 243 245
314 314 314 314 314 313 312 311 310 311 312 312 313 314 312 309 306 301 296 293 291 290 287 283 278 272 266 263 263 264 262 259 258 256 247 240 237 230 225 224 224 223 223 223 224 227 232 234 237 239 239 237 236 236 236 237 237 234 231 230 234 241 245 248 249 245 240 237 234 232 233 234 235 236 239 241 241 241 242 244 245 245 245 245 246
314 314 313 313 313 312 311 311 312 314 315 315 315 315 313 310 306 301 296 292 290 290 289 286 281 274 265 259 258 259 260 258 256 253 246 239 235 229 224 223 224 224 223 222 221 223 228 232 235 237 236 235 237 239 238 236 234 230 226 225 231 237 241 240 238 235 233 233 232 231 231 231 233 235 237 237 237 238 241 244 246 246 246 245 245
314 314 313 313 312 311 312 314 315 316 317 317 317 317 315 311 306 302 297 292 290 290 290 288 283 273 263 255 253 255 257 256 255 251 244 238 234 227 222 222 223 223 223 223 221 221 224 227 231 231 228 227 234 239 240 239 236 229 224 225 229 234 235 231 227 229 232 234 233 231 228 226 228 233 236 236 236 239 239 238 241 244 244 243 242
314 314 314 313 312 313 314 317 318 318 318 318 319 317 315 311 307 303 298 294 291 291 291 289 284 273 260 251 249 252 254 255 255 249 242 237 233 226 221 221 221 221 220 221 221 220 220 222 224 222 218 221 229 236 238 238 235 228 224 225 229 232 235 233 232 235 239 240 238 235 232 230 230 233 235 232 229 231 232 232 236 241 241 239 238
315 315 314 313 313 315 317 319 319 319 320 320 320 317 314 311 308 305 300 295 293 293 292 290 283 272 258 249 247 249 252 255 255 249 241 235 231 226 223 220 220 220 218 218 220 221 218 219 219 215 212 217 227 235 238 236 232 226 223 225 227 229 233 234 234 235 236 236 235 234 233 234 232 230 228 223 219 223 230 233 236 239 238 235 233
315 314 314 314 315 317 320 321 320 320 321 321 321 318 315 313 311 308 303 297 294 293 292 289 282 270 258 250 248 250 251 254 255 249 241 235 229 227 225 224 222 219 214 213 218 222 220 219 218 214 214 219 225 232 237 234 226 220 219 221 224 226 228 230 230 228 226 226 227 230 232 232 229 226 225 224 225 228 231 232 232 232 230 228 224
315 314 314 315 317 319 321 323 322 322 322 323 322 319 317 315 314 310 305 299 295 292 290 286 278 268 259 253 252 253 253 253 252 246 239 235 231 228 228 227 224 218 211 209 215 219 219 219 216 212 215 222 224 227 235 233 222 213 210 213 219 224 225 226 225 224 222 223 226 230 233 234 230 227 228 229 229 230 230 229 229 227 223 219 216
316 315 315 316 318 320 323 325 325 323 322 323 323 321 318 317 316 312 306 301 295 290 288 283 275 266 259 255 255 256 256 255 252 245 238 233 230 227 227 224 220 215 210 209 212 214 214 216 216 213 216 222 220 221 230 231 220 208 204 205 211 219 222 223 223 223 222 223 225 229 234 236 233 229 227 226 226 226 226 224 220 217 213 209 206
Height
5906 5905 5906 5906 5906 5904 5903 5903 5904 5905 5903 5901 5900 5900 5901 5901 5902 5902 5902 5903 5902 5902 5902 5903 5904 5904 5905 5906 5906 5906 5906 5907 5908 5909 5910 5910 5910 5911 5912 5912 5913 5914 5915 5916 5916 5917 5918 5918 5919 5920 5920 5921 5921 5921 5922 5923 5923 5922 5921 5921 5920 5919 5918 5918 5916 5915 5914 5914 5914 5914 5914 5914 5914 5915 5915 5915 5915 5916 5916 5916 5916 5916 5916 5916 5917
5908 5907 5906 5906 5905 5903 5903 5902 5903 5904 5903 5902 5901 5900 5900 5900 5901 5901 5901 5902 5902 5901 5901 5901 5902 5902 5903 5903 5904 5904 5905 5906 5907 5908 5908 5909 5909 5910 5910 5911 5912 5913 5913 5914 5915 5916 5916 5917 5917 5918 5919 5919 5920 5920 5921 5922 5922 5922 5922 5921 5921 5920 5919 5918 5917 5916 5915 5914 5914 5915 5915 5915 5915 5915 5915 5916 5916 5916 5916 5916 5916 5916 5916 5916 5916
5907 5907 5906 5905 5904 5903 5903 5903 5903 5904 5903 5901 5901 5900 5899 5899 5900 5900 5900 5900 5900 5900 5900 5899 5900 5900 5900 5900 5901 5902 5903 5904 5905 5906 5906 5907 5908 5908 5909 5910 5910 5911 5912 5913 5914 5915 5915 5915 5916 5917 5918 5918 5918 5919 5920 5921 5922 5922 5922 5921 5921 5920 5919 5918 5917 5916 5916 5915 5915 5915 5915 5915 5915 5915 5916 5916 5916 5916 5916 5916 5916 5916 5916 5916 5916
5907 5906 5906 5906 5905 5904 5904 5904 5904 5903 5902 5900 5898 5898 5898 5899 5898 5898 5898 5899 5898 5897 5897 5897 5897 5897 5897 5898 5899 5899 5900 5901 5902 5903 5904 5905 5906 5906 5907 5908 5908 5909 5910 5911 5913 5914 5914 5914 5914 5915 5916 5916 5917 5917 5918 5919 5920 5921 5921 5921 5921 5920 5919 5918 5918 5917 5917 5916 5916 5916 5915 5915 5915 5916 5916 5916 5916 5916 5916 5916 5916 5916 5916 5916 5916
5907 5906 5905 5906 5906 5905 5905 5906 5906 5906 5903 5899 5896 5894 5895 5896 5897 5897 5897 5897 5896 5895 5895 5895 5895 5895 5895 5896 5897 5897 5898 5898 5899 5900 5901 5902 5903 5903 5905 5906 5906 5907 5909 5910 5911 5912 5913 5913 5913 5914 5915 5915 5915 5916 5917 5917 5918 5919 5920 5920 5920 5919 5918 5918 5918 5918 5917 5917 5917 5917 5916 5916 5916 5915 5916 5916 5916 5916 5916 5916 5916 5915 5915 5916 5916
5908 5907 5905 5905 5905 5904 5904 5906 5908 5909 5907 5903 5899 5896 5894 5894 5894 5895 5896 5896 5895 5894 5894 5893 5893 5893 5893 5894 5895 5895 5896 5897 5897 5898 5899 5900 5900 5901 5902 5904 5904 5905 5906 5907 5908 5910 5911 5912 5912 5913 5913 5913 5914 5914 5915 5915 5916 5917 5918 5918 5918 5918 5917 5917 5917 5918 5918 5917 5917 5917 5917 5916 5916 5915 5915 5916 5916 5916 5916 5916 5916 5916 5916 5916 5917
5910 5909 5907 5905 5904 5903 5902 5902 5902 5903 5904 5904 5904 5903 5900 5897 5894 5893 5893 5894 5893 5892 5892 5891 5890 5891 5892 5893 5894 5894 5895 5895 5896 5897 5897 5898 5899 5900 5901 5901 5902 5903 5904 5905 5906 5907 5909 5910 5911 5911 5912 5912 5912 5913 5913 5913 5914 5915 5915 5916 5916 5916 5916 5916 5916 5917 5917 5917 5917 5916 5916 5916 5916 5916 5916 5916 5916 5916 5916 5916 5916 5916 5916 5917 5917
5911 5910 5908 5907 5905 5904 5902 5900 5898 5896 5896 5898 5900 5901 5902 5901 5899 5896 5894 5893 5891 5890 5889 5889 5888 5888 5889 5891 5892 5893 5894 5895 5895 5895 5896 5896 5897 5898 5898 5899 5900 5900 5901 5903 5904 5905 5906 5907 5909 5909 5910 5910 5910 5911 5911 5911 5912 5912 5913 5914 5914 5915 5915 5915 5915 5916 5916 5916 5916 5916 5916 5915 5915 5916 5916 5916 5916 5916 5916 5916 5917 5917 5917 5917 5918
5911 5910 5909 5908 5907 5905 5904 5902 5899 5895 5893 5893 5893 5894 5896 5897 5898 5898 5896 5894 5892 5890 5888 5888 5888 5888 5887 5887 5888 5890 5892 5894 5894 5894 5894 5894 5894 5895 5896 5896 5897 5898 5899 5900 5901 5902 5904 5905 5906 5907 5908 5908 5908 5909 5909 5909 5910 5910 5911 5911 5912 5913 5914 5914 5914 5915 5915 5915 5915 5915 5915 5915 5915 5915 5915 5916 5916 5916 5916 5916 5917 5917 5917 5917 5918
5910 5909 5909 5908 5907 5906 5905 5903 5901 5898 5895 5892 5890 5889 5889 5889 5890 5891 5890 5889 5889 5888 5886 5885 5885 5886 5886 5885 5885 5886 5887 5889 5891 5892 5892 5892 5891 5892 5893 5894 5895 5896 5897 5898 5899 5900 5901 5902 5903 5904 5905 5906 5907 5907 5907 5908 5908 5909 5909 5910 5910 5911 5912 5913 5913 5913 5914 5914 5914 5915 5915 5915 5915 5915 5915 5915 5916 5916 5916 5916 5917 5917 5917 5917 5917
5909 5909 5908 5908 5907 5906 5905 5904 5902 5899 5897 5895 5891 5889 5887 5886 5885 5884 5883 5883 5883 5882 5881 5881 5881 5881 5882 5882 5883 5883 5884 5885 5887 5889 5890 5890 5890 5889 5890 5891 5892 5893 5894 5895 5896 5897 5898 5899 5900 5901 5902 5904 5905 5905 5906 5906 5907 5907 5908 5909 5909 5910 5910 5911 5912 5912 5912 5913 5913 5914 5914 5914 5915 5915 5915 5915 5915 5916 5916 5916 5916 5916 5916 5916 5916
5908 5908 5907 5906 5906 5905 5904 5903 5901 5899 5897 5895 5892 5890 5888 5886 5885 5884 5883 5882 5881 5879 5878 5878 5878 5878 5878 5878 5878 5879 5880 5881 5882 5884 5886 5888 5888 5888 5888 5889 5890 5891 5892 5892 5893 5894 5895 5896 5897 5898 5900 5901 5902 5904 5905 5905 5906 5906 5907 5908 5908 5908 5909 5909 5910 5911 5911 5911 5912 5912 5912 5913 5914 5914 5914 5915 5915 5915 5915 5916 5916 5916 5916 5916 5916
5907 5906 5905 5905 5904 5903 5903 5902 5900 5898 5897 5895 5892 5890 5888 5887 5886 5885 5884 5883 5882 5880 5879 5878 5877 5876 5875 5875 5875 5875 5876 5877 5878 5879 5881 5884 5886 5887 5887 5888 5888 5888 5889 5889 5890 5891 5892 5894 5895 5896 5897 5898 5900 5902 5903 5904 5904 5905 5906 5907 5907 5907 5907 5908 5909 5909 5910 5910 5910 5911 5911 5911 5912 5913 5914 5914 5914 5914 5915 5915 5915 5916 5916 5916 5916
5906 5905 5904 5903 5902 5901 5900 5899 5898 5897 5895 5893 5891 5889 5887 5886 5885 5884 5883 5882 5881 5879 5878 5877 5877 5875 5874 5873 5873 5873 5873 5874 5874 5875 5877 5879 5882 5884 5885 5886 5886 5887 5887 5887 5887 5888 5890 5891 5892 5893 5894 5896 5897 5899 5901 5902 5903 5904 5905 5905 5906 5906 5906 5907 5907 5908 5908 5909 5909 5909 5910 5910 5911 5912 5912 5913 5913 5914 5914 5914 5915 5915 5915 5916 5916
5904 5903 5902 5901 5900 5899 5897 5896 5896 5895 5893 5891 5889 5887 5885 5884 5883 5882 5881 5880 5879 5878 5876 5875 5874 5874 5873 5872 5871 5871 5870 5870 5870 5871 5872 5875 5878 5881 5883 5885 5885 5885 5885 5885 5886 5887 5887 5888 5890 5891 5892 5893 5895 5896 5898 5899 5901 5902 5903 5904 5904 5904 5905 5905 5906 5906 5906 5907 5907 5908 5909 5909 5910 5910 5911 5912 5912 5913 5913 5914 5914 5914 5915 5915 5916
5902 5901 5900 5899 5898 5896 5895 5893 5892 5892 5891 5889 5887 5885 5883 5882 5881 5880 5879 5878 5877 5876 5874 5873 5872 5871 5870 5869 5868 5867 5867 5867 5867 5867 5868 5870 5873 5876 5879 5882 5884 5884 5884 5884 5885 5885 5885 5886 5887 5888 5889 5890 5892 5893 5895 5897 5898 5899 5900 5901 5902 5902 5903 5903 5904 5904 5905 5905 5906 5906 5907 5908 5908 5909 5909 5910 5911 5912 5912 5913 5913 5914 5914 5915 5915
5900 5899 5897 5896 5895 5894 5892 5891 5889 5888 5887 5887 5885 5883 5881 5880 5878 5877 5876 5875 5874 5873 5872 5870 5869 5869 5868 5867 5865 5864 5863 5864 5864 5864 5865 5866 5867 5869 5872 5875 5879 5882 5883 5883 5884 5884 5884 5885 5885 5886 5887 5888 5889 5890 5892 5894 5895 5897 5898 5899 5899 5900 5900 5901 5902 5902 5903 5903 5904 5904 5905 5906 5907 5907 5908 5908 5909 5910 5910 5911 5912 5913 5914 5914 5914
5898 5896 5894 5892 5891 5891 5890 5888 5887 5885 5884 5883 5882 5881 5879 5877 5876 5875 5873 5872 5870 5869 5868 5867 5867 5866 5865 5864 5863 5861 5860 5860 5861 5863 5864 5864 5865 5866 5867 5868 5872 5875 5878 5880 5881 5882 5883 5882 5883 5884 5885 5886 5886 5887 5889 5891 5892 5893 5895 5896 5897 5897 5898 5899 5900 5900 5901 5901 5902 5903 5904 5904 5905 5906 5906 5907 5907 5908 5909 5910 5910 5911 5913 5913 5913
5897 5895 5893 5891 5888 5887 5886 5884 5883 5882 5881 5880 5879 5878 5876 5875 5873 5871 5870 5869 5867 5866 5865 5864 5863 5863 5862 5861 5861 5860 5858 5857 5857 5860 5862 5863 5863 5865 5865 5865 5866 5869 5872 5874 5876 5879 5880 5880 5880 5881 5882 5883 5884 5885 5886 5888 5889 5891 5892 5893 5895 5895 5896 5896 5897 5898 5899 5900 5900 5901 5902 5903 5903 5904 5904 5905 5906 5906 5907 5908 5909 5910 5911 5911 5912
5893 5892 5891 5889 5887 5885 5883 5881 5879 5878 5876 5876 5875 5874 5873 5871 5870 5868 5866 5865 5864 5862 5861 5860 5859 5859 5858 5858 5858 5857 5856 5854 5854 5855 5857 5859 5860 5862 5863 5864 5864 5865 5867 5868 5871 5874 5876 5877 5878 5878 5878 5879 5881 5882 5884 5886 5887 5888 5890 5891 5892 5893 5894 5894 5895 5896 5897 5898 5898 5899 5900 5901 5901 5902 5903 5903 5904 5905 5905 5906 5907 5908 5909 5909 5910
5890 5889 5887 5886 5885 5883 5881 5879 5877 5875 5873 5872 5871 5870 5869 5868 5866 5864 5863 5861 5860 5859 5857 5856 5855 5854 5854 5854 5855 5854 5853 5852 5852 5852 5853 5855 5856 5858 5860 5862 5864 5866 5867 5867 5868 5869 5871 5873 5874 5874 5875 5876 5878 5879 5881 5883 5884 5886 5887 5888 5889 5890 5891 5891 5892 5893 5894 5895 5896 5897 5898 5899 5899 5900 5900 5901 5902 5902 5903 5904 5905 5906 5907 5907 5908
5887 5886 5885 5883 5881 5880 5878 5876 5875 5873 5872 5870 5869 5867 5866 5864 5863 5861 5860 5858 5856 5855 5853 5852 5851 5851 5850 5850 5851 5851 5850 5850 5850 5849 5850 5851 5853 5855 5857 5860 5863 5866 5867 5868 5868 5869 5870 5870 5871 5872 5873 5875 5877 5877 5878 5880 5882 5883 5884 5885 5886 5887 5888 5889 5890 5891 5892 5893 5894 5895 5896 5897 5898 5898 5899 5899 5900 5900 5901 5902 5903 5904 5905 5906 5906
5880 5880 5880 5879 5878 5876 5875 5873 5871 5870 5868 5867 5865 5864 5862 5860 5858 5857 5856 5854 5852 5850 5849 5848 5847 5847 5847 5847 5847 5847 5847 5848 5847 5847 5847 5848 5849 5851 5853 5856 5859 5861 5863 5865 5867 5869 5870 5869 5870 5871 5871 5872 5874 5875 5876 5878 5879 5880 5881 5882 5883 5885 5886 5887 5888 5889 5890 5891 5892 5893 5894 5895 5896 5897 5897 5898 5898 5899 5899 5900 5900 5901 5902 5903 5904
5873 5872 5871 5872 5871 5871 5869 5868 5867 5865 5864 5862 5860 5859 5857 5856 5854 5853 5851 5850 5848 5846 5845 5844 5843 5843 5843 5843 5843 5843 5843 5844 5844 5844 5844 5845 5846 5848 5850 5852 5854 5856 5858 5860 5862 5866 5868 5869 5869 5869 5869 5870 5871 5872 5874 5876 5876 5877 5878 5879 5880 5882 5883 5885 5886 5886 5887 5889 5890 5891 5892 5893 5894 5894 5895 5896 5896 5897 5897 5898 5899 5899 5900 5900 5901
5867 5865 5864 5864 5864 5864 5864 5863 5861 5860 5858 5857 5855 5853 5851 5850 5849 5848 5846 5845 5843 5842 5841 5840 5839 5839 5839 5839 5839 5839 5839 5840 5840 5841 5841 5842 5844 5845 5847 5849 5851 5853 5854 5855 5857 5860 5863 5865 5866 5867 5867 5868 5868 5869 5871 5873 5875 5875 5875 5876 5877 5878 5880 5881 5883 5884 5885 5886 5887 5888 5889 5890 5891 5891 5892 5893 5893 5894 5894 5895 5896 5897 5897 5897 5897
5864 5862 5860 5858 5857 5857 5857 5856 5855 5854 5853 5851 5849 5847 5845 5843 5843 5843 5841 5840 5838 5837 5836 5836 5835 5835 5835 5835 5835 5835 5835 5836 5836 5838 5839 5839 5841 5842 5844 5846 5848 5849 5851 5852 5853 5854 5856 5859 5861 5863 5865 5866 5866 5866 5868 5871 5874 5873 5873 5873 5874 5875 5876 5878 5880 5881 5882 5883 5884 5885 5886 5887 5888 5888 5889 5890 5890 5890 5891 5892 5893 5893 5894 5894 5894
5861 5859 5856 5854 5852 5850 5850 5849 5849 5848 5847 5845 5844 5843 5840 5838 5837 5837 5836 5835 5833 5832 5831 5831 5830 5830 5830 5831 5831 5831 5832 5832 5833 5834 5836 5837 5838 5839 5840 5842 5843 5845 5847 5848 5849 5850 5852 5854 5857 5860 5863 5863 5864 5864 5865 5867 5869 5870 5871 5871 5871 5872 5873 5875 5876 5878 5879 5880 5881 5882 5883 5884 5885 5885 5886 5887 5887 5887 5888 5889 5890 5890 5891 5891 5891
5858 5856 5853 5850 5848 5845 5844 5842 5841 5841 5840 5839 5838 5837 5836 5834 5832 5831 5831 5830 5828 5827 5826 5826 5826 5825 5826 5826 5827 5828 5828 5828 5829 5830 5832 5834 5835 5835 5836 5837 5839 5841 5842 5843 5845 5847 5849 5851 5854 5857 5859 5860 5862 5862 5861 5862 5864 5866 5868 5869 5869 5869 5870 5872 5874 5875 5876 5877 5878 5879 5880 5881 5882 5883 5883 5884 5884 5885 5885 5886 5887 5888 5889 5889 5889
5855 5853 5850 5847 5844 5841 5839 5836 5835 5834 5833 5832 5831 5831 5830 5829 5827 5826 5825 5825 5824 5823 5822 5822 5821 5821 5821 5821 5822 5823 5824 5824 5825 5826 5828 5830 5831 5832 5832 5833 5834 5836 5837 5839 5841 5844 5846 5849 5851 5853 5855 5857 5859 5860 5860 5861 5862 5864 5865 5866 5866 5866 5868 5869 5871 5872 5873 5874 5875 5876 5877 5878 5879 5879 5880 5881 5881 5883 5884 5885 5885 5886 5886 5887 5887
5852 5849 5846 5844 5841 5838 5835 5832 5829 5828 5826 5826 5825 5825 5824 5824 5822 5821 5820 5820 5819 5818 5818 5817 5817 5817 5816 5817 5817 5818 5819 5820 5820 5822 5824 5825 5826 5827 5829 5830 5830 5831 5832 5834 5837 5840 5842 5845 5847 5848 5849 5852 5854 5856 5857 5858 5860 5861 5863 5863 5863 5864 5865 5867 5868 5869 5870 5871 5872 5873 5874 5874 5875 5876 5876 5878 5879 5881 5882 5881 5881 5881 5882 5883 5883
5848 5845 5842 5839 5836 5833 5830 5828 5825 5823 5821 5820 5820 5819 5819 5818 5817 5816 5815 5815 5814 5814 5813 5813 5813 5813 5812 5812 5813 5814 5814 5815 5816 5818 5820 5822 5822 5823 5824 5826 5827 5828 5829 5830 5832 5835 5837 5840 5842 5844 5844 5846 5849 5851 5852 5854 5856 5857 5859 5860 5860 5861 5862 5864 5865 5867 5867 5868 5868 5869 5870 5871 5871 5872 5873 5874 5877 5878 5877 5876 5876 5878 5879 5879 5880
5844 5841 5837 5834 5831 5829 5826 5823 5821 5819 5818 5816 5815 5815 5814 5813 5812 5811 5811 5810 5810 5810 5809 5809 5809 5809 5809 5808 5809 5809 5810 5811 5812 5813 5816 5817 5818 5818 5819 5821 5823 5824 5826 5827 5829 5831 5833 5834 5836 5838 5840 5841 5844 5846 5847 5849 5851 5853 5854 5855 5856 5857 5858 5860 5862 5864 5865 5865 5865 5866 5866 5867 5867 5868 5869 5871 5873 5874 5873 5872 5873 5874 5875 5876 5876
5840 5836 5833 5829 5827 5824 5821 5819 5817 5816 5814 5813 5812 5811 5811 5810 5809 5807 5807 5806 5806 5805 5805 5804 5804 5805 5805 5805 5804 5804 5805 5806 5807 5808 5810 5812 5813 5814 5815 5816 5818 5820 5822 5824 5825 5827 5828 5829 5831 5832 5834 5836 5838 5841 5842 5844 5847 5849 5850 5851 5852 5853 5854 5856 5858 5859 5861 5862 5863 5863 5863 5863 5864 5864 5865 5867 5869 5870 5870 5870 5870 5871 5871 5872 5872
5836 5832 5829 5826 5823 5820 5818 5816 5814 5813 5812 5811 5810 5809 5807 5806 5805 5804 5803 5803 5802 5802 5801 5800 5800 5800 5801 5801 5800 5800 5800 5801 5802 5803 5805 5806 5807 5809 5810 5812 5814 5816 5818 5819 5821 5823 5824 5825 5826 5827 5828 5830 5832 5835 5837 5840 5842 5845 5846 5848 5849 5850 5851 5853 5854 5855 5857 5860 5861 5861 5861 5860 5860 5860 5861 5863 5864 5866 5867 5868 5868 5868 5868 5868 5869
5831 5828 5826 5823 5820 5818 5815 5814 5812 5811 5809 5808 5807 5806 5804 5803 5802 5801 5800 5799 5798 5798 5797 5796 5795 5795 5796 5796 5796 5796 5796 5796 5797 5798 5799 5801 5803 5804 5805 5808 5810 5812 5813 5815 5817 5818 5820 5821 5821 5822 5823 5824 5826 5828 5831 5834 5837 5839 5841 5843 5845 5846 5847 5849 5851 5852 5853 5855 5857 5858 5858 5857 5857 5857 5858 5859 5860 5861 5862 5864 5864 5865 5865 5865 5866
5828 5825 5823 5820 5817 5815 5814 5812 5810 5809 5807 5806 5805 5803 5802 5800 5799 5798 5797 5795 5794 5794 5793 5792 5791 5790 5791 5792 5792 5792 5792 5792 5793 5794 5795 5797 5799 5800 5801 5803 5805 5808 5809 5810 5812 5814 5815 5817 5818 5818 5819 5820 5821 5823 5826 5828 5831 5833 5835 5838 5840 5841 5843 5844 5846 5848 5849 5851 5852 5853 5853 5854 5854 5854 5854 5855 5856 5857 5858 5859 5860 5861 5861 5862 5862
5825 5822 5819 5817 5815 5813 5811 5810 5808 5806 5805 5803 5802 5800 5799 5798 5796 5795 5793 5792 5791 5790 5789 5788 5787 5786 5786 5787 5787 5787 5788 5788 5788 5789 5790 5792 5794 5796 5798 5799 5801 5803 5804 5806 5808 5810 5811 5813 5814 5815 5815 5816 5817 5819 5821 5823 5825 5827 5830 5833 5835 5837 5838 5840 5842 5843 5845 5846 5847 5847 5848 5850 5851 5852 5852 5852 5853 5854 5854 5855 5856 5856 5857 5858 5858
5822 5819 5817 5814 5812 5810 5808 5807 5805 5803 5802 5800 5799 5797 5796 5795 5793 5791 5790 5789 5787 5786 5785 5785 5784 5783 5782 5782 5783 5783 5784 5784 5784 5785 5786 5788 5790 5791 5793 5794 5796 5798 5800 5803 5805 5806 5808 5810 5811 5811 5812 5813 5814 5816 5818 5819 5820 5822 5824 5827 5829 5831 5833 5835 5837 5838 5839 5841 5842 5842 5844 5847 5848 5848 5848 5849 5849 5850 5851 5851 5851 5852 5854 5855 5855
5819 5817 5814 5812 5810 5807 5805 5804 5802 5800 5799 5797 5796 5794 5792 5791 5790 5788 5786 5785 5784 5783 5782 5781 5780 5779 5778 5778 5778 5779 5779 5779 5780 5780 5781 5783 5784 5786 5788 5790 5792 5794 5796 5798 5801 5803 5805 5806 5807 5808 5809 5810 5811 5812 5814 5815 5816 5817 5819 5821 5823 5826 5828 5830 5831 5832 5834 5835 5836 5838 5840 5842 5843 5843 5844 5845 5846 5846 5847 5847 5847 5849 5851 5852 5852
5816 5814 5812 5809 5807 5805 5802 5801 5799 5797 5795 5794 5792 5790 5789 5787 5785 5784 5782 5780 5779 5778 5778 5777 5776 5776 5775 5774 5774 5774 5774 5774 5775 5776 5777 5778 5779 5781 5783 5786 5789 5791 5793 5794 5796 5798 5801 5803 5804 5805 5806 5806 5807 5809 5810 5811 5812 5814 5815 5817 5819 5821 5823 5824 5825 5826 5828 5829 5831 5833 5836 5837 5838 5838 5840 5841 5842 5842 5843 5843 5844 5846 5847 5847 5848
5813 5811 5809 5806 5803 5801 5799 5797 5795 5793 5792 5790 5788 5786 5784 5782 5780 5778 5776 5775 5773 5773 5772 5772 5772 5772 5771 5770 5770 5769 5769 5770 5770 5771 5772 5774 5775 5777 5779 5781 5784 5786 5788 5790 5792 5794 5797 5800 5801 5801 5802 5803 5804 5805 5806 5807 5808 5809 5811 5812 5814 5816 5818 5819 5820 5821 5822 5824 5825 5828 5830 5831 5833 5834 5835 5837 5838 5839 5839 5840 5841 5843 5843 5843 5843
5810 5807 5805 5803 5800 5798 5795 5793 5791 5789 5787 5785 5784 5782 5779 5777 5774 5772 5770 5769 5768 5767 5767 5766 5766 5767 5767 5766 5766 5765 5765 5765 5766 5767 5768 5769 5771 5773 5775 5777 5780 5782 5784 5786 5788 5791 5794 5796 5797 5798 5798 5799 5800 5800 5801 5802 5803 5804 5806 5807 5809 5810 5812 5814 5815 5816 5817 5818 5820 5822 5823 5825 5827 5829 5830 5832 5833 5834 5835 5836 5836 5838 5839 5840 5840
5807 5804 5802 5799 5797 5795 5792 5790 5787 5785 5783 5781 5779 5777 5775 5772 5769 5767 5765 5764 5763 5762 5761 5761 5761 5761 5761 5762 5761 5761 5761 5761 5761 5762 5763 5764 5766 5768 5771 5774 5776 5778 5780 5782 5784 5787 5790 5792 5794 5794 5795 5795 5796 5796 5797 5797 5798 5799 5801 5802 5804 5806 5807 5809 5810 5811 5811 5812 5813 5814 5816 5818 5822 5824 5826 5827 5828 5830 5831 5831 5832 5833 5835 5836 5837
5803 5801 5798 5796 5794 5792 5789 5786 5784 5781 5779 5777 5775 5773 5770 5767 5765 5763 5761 5759 5758 5757 5756 5756 5755 5755 5756 5756 5757 5756 5756 5757 5757 5757 5759 5760 5762 5764 5766 5769 5772 5774 5776 5778 5780 5783 5786 5788 5790 5791 5791 5792 5792 5793 5793 5794 5794 5795 5796 5797 5799 5801 5802 5804 5805 5805 5806 5806 5807 5809 5810 5813 5816 5819 5821 5823 5825 5826 5826 5827 5828 5829 5830 5831 5832
5800 5797 5795 5793 5791 5789 5786 5783 5780 5778 5775 5772 5770 5769 5766 5764 5761 5758 5756 5755 5754 5753 5752 5751 5750 5750 5750 5751 5752 5752 5752 5753 5753 5753 5755 5756 5758 5759 5762 5765 5768 5771 5773 5775 5777 5779 5782 5784 5786 5788 5788 5789 5790 5789 5790 5790 5791 5791 5791 5793 5794 5796 5798 5800 5801 5801 5801 5803 5804 5805 5807 5809 5812 5814 5816 5818 5820 5821 5822 5823 5824 5825 5826 5827 5827
5797 5794 5792 5790 5788 5786 5783 5780 5777 5774 5771 5768 5766 5764 5762 5759 5757 5754 5752 5751 5750 5749 5747 5746 5745 5745 5746 5746 5747 5748 5748 5749 5749 5750 5751 5752 5754 5756 5758 5761 5764 5767 5770 5772 5774 5775 5777 5780 5783 5784 5785 5785 5786 5786 5786 5786 5787 5787 5787 5788 5790 5792 5794 5796 5797 5798 5799 5800 5802 5802 5804 5806 5809 5811 5811 5813 5816 5817 5817 5818 5819 5820 5821 5822 5823
5794 5792 5789 5787 5785 5783 5780 5777 5774 5771 5768 5765 5763 5760 5758 5755 5752 5750 5748 5746 5745 5744 5743 5742 5741 5741 5741 5742 5743 5744 5744 5744 5745 5746 5747 5748 5750 5753 5755 5757 5759 5762 5766 5769 5771 5772 5773 5775 5778 5780 5781 5781 5781 5782 5782 5783 5783 5783 5783 5785 5787 5788 5790 5792 5794 5795 5797 5798 5800 5801 5802 5803 5806 5807 5807 5809 5811 5811 5811 5813 5815 5816 5817 5818 5819
5791 5788 5786 5784 5782 5779 5777 5774 5771 5768 5765 5762 5759 5756 5754 5751 5749 5747 5745 5743 5741 5740 5739 5738 5738 5737 5738 5738 5739 5739 5740 5741 5741 5742 5743 5745 5747 5750 5752 5753 5755 5757 5761 5764 5767 5769 5770 5771 5773 5775 5777 5777 5777 5777 5778 5779 5779 5779 5780 5781 5783 5785 5786 5788 5790 5792 5794 5795 5796 5797 5798 5799 5801 5802 5802 5803 5804 5805 5806 5809 5811 5812 5813 5814 5815
5788 5785 5783 5781 5779 5776 5773 5770 5767 5765 5762 5759 5756 5753 5750 5748 5746 5743 5742 5740 5738 5737 5736 5735 5734 5734 5734 5734 5735 5735 5736 5737 5738 5739 5740 5741 5744 5746 5748 5750 5752 5754 5757 5760 5763 5766 5767 5768 5769 5770 5772 5773 5773 5773 5774 5776 5776 5776 5777 5778 5780 5783 5784 5785 5787 5789 5791 5792 5793 5793 5794 5795 5796 5797 5798 5799 5800 5802 5803 5805 5806 5807 5808 5809 5810
5785 5783 5780 5778 5775 5772 5770 5767 5764 5761 5758 5756 5753 5749 5747 5745 5743 5741 5739 5737 5735 5733 5732 5731 5731 5730 5730 5731 5731 5732 5733 5734 5735 5736 5737 5738 5740 5742 5744 5746 5748 5751 5753 5756 5759 5762 5763 5764 5766 5767 5769 5770 5771 5771 5772 5773 5773 5773 5774 5775 5777 5780 5781 5783 5784 5786 5788 5789 5789 5790 5791 5792 5792 5793 5795 5796 5797 5799 5800 5800 5801 5802 5804 5805 5806
5783 5780 5778 5775 5772 5769 5766 5764 5761 5758 5755 5753 5750 5747 5744 5741 5739 5737 5735 5734 5732 5730 5728 5728 5727 5727 5727 5727 5728 5729 5729 5730 5731 5733 5734 5736 5737 5739 5741 5743 5745 5747 5750 5752 5755 5757 5759 5761 5763 5764 5766 5768 5769 5769 5770 5771 5771 5771 5772 5773 5775 5777 5778 5780 5781 5783 5784 5785 5786 5787 5788 5789 5789 5790 5791 5792 5794 5795 5796 5797 5798 5799 5801 5803 5804